Location: Hurstbourne Priors
(51.2000°N, 1.3667°W)
Time: 17:26:01
(UTC+00:00)

Vanguard 3 - Pass Details

Date: 26 April 2021
Orbit: 507 x 3262 km, 33.4° (Epoch: 16 May)

Event Time Altitude Azimuth Distance (km) Brightness Sun altitude
Rises 00:49:09 0° 233° (SW) 4,211 - -24.5°
Reaches altitude 10° 00:54:46 10° 202° (SSW) 2,596 - -24.3°
Maximum altitude 00:56:30 11° 185° (S) 2,322 - -24.2°
Drops below altitude 10° 00:58:04 10° 167° (SSE) 2,255 - -24.2°
Sets 01:01:51 0° 131° (SE) 2,841 - -24.0°
